Starlink 11133

operational
NORAD ID: 59954 Int'l Des: 2024-107 Owner: SPXS Country: US Constellation: starlink
LEOCIRCULAR

Über Starlink 11133

Beschreibung wird geladen...

Live-Position

3D-Globus wird geladen...

Nächste Überflüge

Höhenverlauf

Altitude vs Time

uPlot chart will show altitude changes over time

Zweizeiliger Elementsatz

1 59954U 24107K 25308.93446087 -.00000299 00000-0 23965-5 0 9996
2 59954 53.1562 146.1221 0001543 91.6998 268.4196 15.69701324 82552
Epoch: 4. Nov. 2025 • Age: 12 hours

Aktueller Status

Höhe 365.1 km
Geschwindigkeit 7.69 km/s
Subsatellitenpunkt -18.11°S, 143.22°E
Startdatum 5. Juni 2024
Alter 1.4 years
Typ internet

Technische Details

Klassifizierung Payload
Masse 960.00 kg
Trockenmasse 910.00 kg
Gesamtmasse 960.00 kg
Länge 0.30 m
Durchmesser 4.10 m
Spannweite 29.00 m
Form Box + pan
Hersteller SPXS
Bus-Typ Starlink V2MD
Phasenstatus In Orbit
Besitzer/Staat SPXS/US

Große Konstellationen

Loading constellations...